Content
SEND FEEDBACK

Daily
Averages
Monthly
Summary
United States of America

MERIZO, GUAM


Home > North America > United States > Guam
Elevation: 3 meters     Latitude: 13 14N     Longitude: 144 39E

WEATHER
 
SELECT A DAY
Number of Records: 351,620;   Date Range: 1/1/95 - 10/20/14
 
SHARE

PRINT THIS DATA

[ ← Previous Day ]
WEATHER ALMANAC - 23 JANUARY, 2013
[ Next Day → ]
[ °F ]   °C
Weather ElementAverageHighLow
Temperature25.7 °C29 °C (9:55 am)21 °C (2:55 am)
Dewpoint20.2 °C21 °C (12:42 am)17.4 °C (2:55 am)
Humidity72.3 %81 % (12:55 am)52 % (10:55 am)
Barometer1011.5 hPa1014.2 hPa (7:55 am)1009.5 hPa (3:55 pm)
Wind Speed23.2 km/h29.6 km/h (12:55 am)
Weather ElementAverage
Visibility16.1 km
Wind DirectionENE (51.7 °)

Weather ElementTotal
Precipitation---
Cooling Degree Days6.7 (Base 18.3)
Growing Degree Days15 (Base 10)
Averaged from 36 records on 23 January, 2013
WEATHER CONDITIONS BREAKOUT
WIND DIRECTION BREAKOUT
WEATHER BY HOUR - 23 JANUARY, 2013
[ °F ]   °C
Local TimeTemperatureDewpointHumidityBarometerVisibilityWind DirectionWind SpeedGust SpeedPrecipitationEventsConditions
12:42 AM26 °C21 °C74 %1011.9 hPa16.1 kmENE (60°)24.1 km/hMostly Cloudy
12:43 AM26 °C21 °C74 %1011.9 hPa16.1 kmENE (60°)24.1 km/hMostly Cloudy
12:55 AM22.2 °C18.8 °C81 %1011.9 hPa16.1 kmENE (60°)29.6 km/hMostly Cloudy
1:48 AM26 °C21 °C74 %1011.9 hPa16.1 kmNE (50°)27.8 km/hMostly Cloudy
1:55 AM26 °C18.6 °C64 %1011.5 hPa16.1 kmNE (50°)27.8 km/hMostly Cloudy
2:08 AM26 °C21 °C74 %1011.2 hPa16.1 kmENE (60°)27.8 km/hMostly Cloudy
2:10 AM26 °C21 °C74 %1011.2 hPa16.1 kmNE (50°)25.9 km/hMostly Cloudy
2:14 AM26 °C21 °C74 %1011.2 hPa16.1 kmENE (60°)24.1 km/hMostly Cloudy
2:55 AM21 °C17.4 °C80 %1011.5 hPa16.1 kmENE (60°)22.2 km/hPartly Cloudy
3:55 AM25 °C21 °C78 %1011.2 hPa16.1 kmNE (50°)25.9 km/hClear
4:23 AM25 °C21 °C78 %1011.2 hPa16.1 kmNE (50°)22.2 km/hMostly Cloudy
4:25 AM25 °C21 °C78 %1011.2 hPa16.1 kmNE (50°)20.4 km/hLight Drizzle
4:38 AM25 °C21 °C78 %1011.2 hPa16.1 kmENE (60°)20.4 km/hMostly Cloudy
4:55 AM25 °C18.1 °C65 %1011.2 hPa16.1 kmNE (50°)20.4 km/h0 mmMostly Cloudy
5:04 AM25 °C21 °C78 %1011.2 hPa16.1 kmENE (60°)20.4 km/hMostly Cloudy
5:31 AM25 °C21 °C78 %1011.2 hPa16.1 kmNE (50°)24.1 km/hMostly Cloudy
5:36 AM25 °C21 °C78 %1011.2 hPa16.1 kmNE (50°)22.2 km/hMostly Cloudy
5:55 AM25 °C21 °C78 %1011.2 hPa16.1 kmNE (50°)22.2 km/hOvercast
6:55 AM21.5 °C17.9 °C80 %1012.2 hPa16.1 kmNE (50°)24.1 km/hMostly Cloudy
7:55 AM26 °C21 °C74 %1014.2 hPa16.1 kmNE (50°)25.9 km/hMostly Cloudy
8:55 AM28 °C21 °C66 %1013.5 hPa16.1 kmNE (50°)25.9 km/hPartly Cloudy
9:55 AM29 °C18.9 °C54 %1013.5 hPa16.1 kmNE (50°)27.8 km/hPartly Cloudy
10:55 AM29 °C18.1 °C52 %1012.9 hPa16.1 kmNE (40°)24.1 km/hClear
11:55 AM28.2 °C20.9 °C64 %1012.2 hPa16.1 kmNE (50°)25.9 km/hClear
12:55 PM28.1 °C20.8 °C64 %1011.2 hPa16.1 kmNE (50°)24.1 km/hClear
1:55 PM28.3 °C20.1 °C61 %1010.5 hPa16.1 kmNE (40°)24.1 km/hClear
2:55 PM28.3 °C21 °C64 %1009.8 hPa16.1 kmNE (40°)25.9 km/hPartly Cloudy
3:55 PM27.7 °C20.1 °C63 %1009.5 hPa16.1 kmNE (40°)24.1 km/hClear
4:55 PM27.1 °C20 °C65 %1009.8 hPa16.1 kmNNE (30°)25.9 km/hClear
5:55 PM25.7 °C20.1 °C71 %1010.2 hPa16.1 kmNE (50°)20.4 km/hClear
6:55 PM24.7 °C20.3 °C76 %1010.8 hPa16.1 kmENE (60°)22.2 km/hClear
7:55 PM24.9 °C20.4 °C76 %1011.5 hPa16.1 kmNE (50°)22.2 km/hPartly Cloudy
8:55 PM24.2 °C20.2 °C78 %1011.9 hPa16.1 kmENE (60°)16.7 km/hPartly Cloudy
9:55 PM24.4 °C20.3 °C78 %1012.2 hPa16.1 kmENE (60°)16.7 km/hPartly Cloudy
10:55 PM24.2 °C20.3 °C79 %1012.2 hPa16.1 kmNE (50°)13 km/hPartly Cloudy
11:55 PM24.2 °C20.3 °C79 %1012.2 hPa16.1 kmENE (60°)14.8 km/hScattered Clouds
Hourly data recorded from PGUA, located 0 kilometers away from Merizo, Guam







STORIES FROM OUR PARTNERS